Time,TemperatureF,DewpointF,PressureIn,WindDirection,WindDirectionDegrees,WindSpeedMPH,WindSpeedGustMPH,Humidity,HourlyPrecipIn,Conditions,Clouds,dailyrainin,SoftwareType,DateUTC
2013-01-02 00:02:00,3.0,-2.0,-100.00,WSW,244,5.0,10.0,80,0.00,,,-99.99,,2013-01-02 07:02:00,
2013-01-02 00:12:00,3.0,-2.0,-100.00,WSW,244,5.0,10.0,80,0.00,,,-99.99,,2013-01-02 07:12:00,
2013-01-02 00:22:00,3.0,-2.0,-100.00,WSW,244,5.0,10.0,80,0.00,,,-99.99,,2013-01-02 07:22:00,
2013-01-02 00:52:00,2.0,-3.0,-100.00,WSW,247,3.0,10.0,79,0.00,,,0.01,,2013-01-02 07:52:00,
2013-01-02 01:02:00,2.0,-3.0,-100.00,WSW,247,3.0,10.0,79,0.00,,,0.01,,2013-01-02 08:02:00,
2013-01-02 01:12:00,2.0,-3.0,-100.00,WSW,247,3.0,10.0,79,0.00,,,0.01,,2013-01-02 08:12:00,
2013-01-02 01:22:00,2.0,-3.0,-100.00,WSW,247,3.0,10.0,79,0.00,,,0.01,,2013-01-02 08:22:00,
2013-01-02 01:53:00,2.0,-3.0,-100.00,WSW,256,4.0,7.0,79,0.00,,,0.01,,2013-01-02 08:53:00,
2013-01-02 02:02:00,2.0,-3.0,-100.00,WSW,256,4.0,7.0,79,0.00,,,0.01,,2013-01-02 09:02:00,
2013-01-02 02:12:00,2.0,-3.0,-100.00,WSW,256,4.0,7.0,79,0.00,,,0.01,,2013-01-02 09:12:00,
2013-01-02 02:22:00,2.0,-3.0,-100.00,WSW,256,4.0,7.0,79,0.00,,,0.01,,2013-01-02 09:22:00,
2013-01-02 02:53:00,2.0,-3.0,-100.00,West,259,4.0,6.0,79,0.00,,,0.01,,2013-01-02 09:53:00,
2013-01-02 03:02:00,2.0,-3.0,-100.00,West,259,4.0,6.0,79,0.00,,,0.01,,2013-01-02 10:02:00,
2013-01-02 03:12:00,2.0,-3.0,-100.00,West,259,4.0,6.0,79,0.00,,,0.01,,2013-01-02 10:12:00,
2013-01-02 03:22:00,2.0,-3.0,-100.00,West,259,4.0,6.0,79,0.00,,,0.01,,2013-01-02 10:22:00,
2013-01-02 03:52:00,2.0,-3.0,-100.00,West,275,6.0,11.0,79,0.00,,,0.01,,2013-01-02 10:52:00,
2013-01-02 04:02:00,2.0,-3.0,-100.00,West,275,6.0,11.0,79,0.00,,,0.01,,2013-01-02 11:02:00,
2013-01-02 04:12:00,2.0,-3.0,-100.00,West,275,6.0,11.0,79,0.00,,,0.01,,2013-01-02 11:12:00,
2013-01-02 04:22:00,2.0,-3.0,-100.00,West,275,6.0,11.0,79,0.00,,,0.01,,2013-01-02 11:22:00,
2013-01-02 04:53:00,2.0,-3.0,-100.00,West,261,5.0,10.0,79,0.00,,,0.01,,2013-01-02 11:53:00,
2013-01-02 05:02:00,2.0,-3.0,-100.00,West,261,5.0,10.0,79,0.00,,,0.01,,2013-01-02 12:02:00,
2013-01-02 05:12:00,2.0,-3.0,-100.00,West,261,5.0,10.0,79,0.00,,,0.01,,2013-01-02 12:12:00,
2013-01-02 05:22:00,2.0,-3.0,-100.00,West,261,5.0,10.0,79,0.00,,,0.01,,2013-01-02 12:22:00,
2013-01-02 05:53:00,2.0,-3.0,-100.00,West,263,4.0,6.0,79,0.00,,,0.01,,2013-01-02 12:53:00,
2013-01-02 06:02:00,2.0,-3.0,-100.00,West,263,4.0,6.0,79,0.00,,,0.01,,2013-01-02 13:02:00,
2013-01-02 06:12:00,2.0,-3.0,-100.00,West,263,4.0,6.0,79,0.00,,,0.01,,2013-01-02 13:12:00,
2013-01-02 06:22:00,2.0,-3.0,-100.00,West,263,4.0,6.0,79,0.00,,,0.01,,2013-01-02 13:22:00,
2013-01-02 06:52:00,1.0,-4.0,-100.00,ENE,57,2.0,5.0,78,0.00,,,0.01,,2013-01-02 13:52:00,
2013-01-02 07:02:00,1.0,-4.0,-100.00,ENE,57,2.0,5.0,78,0.00,,,0.01,,2013-01-02 14:02:00,
2013-01-02 07:12:00,1.0,-4.0,-100.00,ENE,57,2.0,5.0,78,0.00,,,0.01,,2013-01-02 14:12:00,
2013-01-02 07:22:00,1.0,-4.0,-100.00,ENE,57,2.0,5.0,78,0.00,,,0.01,,2013-01-02 14:22:00,
2013-01-02 07:53:00,0.0,-5.0,-100.00,East,94,2.0,4.0,78,0.00,,,0.01,,2013-01-02 14:53:00,
2013-01-02 08:03:00,0.0,-5.0,-100.00,East,94,2.0,4.0,78,0.00,,,0.01,,2013-01-02 15:03:00,
2013-01-02 08:12:00,0.0,-5.0,-100.00,East,94,2.0,4.0,78,0.00,,,0.01,,2013-01-02 15:12:00,
2013-01-02 08:22:00,0.0,-5.0,-100.00,East,94,2.0,4.0,78,0.00,,,0.01,,2013-01-02 15:22:00,
2013-01-02 08:53:00,1.0,-4.0,-100.00,East,88,2.0,5.0,78,0.00,,,0.01,,2013-01-02 15:53:00,
2013-01-02 09:03:00,1.0,-4.0,-100.00,East,88,2.0,5.0,78,0.00,,,0.01,,2013-01-02 16:03:00,
2013-01-02 09:13:00,1.0,-4.0,-100.00,East,88,2.0,5.0,78,0.00,,,0.01,,2013-01-02 16:13:00,
2013-01-02 09:22:00,1.0,-4.0,-100.00,East,88,2.0,5.0,78,0.00,,,0.01,,2013-01-02 16:22:00,
2013-01-02 09:53:00,4.0,-2.0,-100.00,SW,216,5.0,9.0,76,0.00,,,0.01,,2013-01-02 16:53:00,
2013-01-02 10:03:00,4.0,-2.0,-100.00,SW,216,5.0,9.0,76,0.00,,,0.01,,2013-01-02 17:03:00,
2013-01-02 10:13:00,4.0,-2.0,-100.00,SW,216,5.0,9.0,76,0.00,,,0.01,,2013-01-02 17:13:00,
2013-01-02 10:23:00,4.0,-2.0,-100.00,SW,216,5.0,9.0,76,0.00,,,0.01,,2013-01-02 17:23:00,
2013-01-02 10:53:00,6.0,-1.0,-100.00,West,267,7.0,13.0,72,0.00,,,0.01,,2013-01-02 17:53:00,
2013-01-02 11:03:00,6.0,-1.0,-100.00,West,267,7.0,13.0,72,0.00,,,0.01,,2013-01-02 18:03:00,
2013-01-02 11:12:00,6.0,-1.0,-100.00,West,267,7.0,13.0,72,0.00,,,0.01,,2013-01-02 18:12:00,
2013-01-02 11:22:00,6.0,-1.0,-100.00,West,267,7.0,13.0,72,0.00,,,0.01,,2013-01-02 18:22:00,
2013-01-02 11:53:00,6.0,-1.0,-100.00,West,265,7.0,12.0,73,0.00,,,0.01,,2013-01-02 18:53:00,
2013-01-02 12:03:00,6.0,-1.0,-100.00,West,265,7.0,12.0,73,0.00,,,0.01,,2013-01-02 19:03:00,
2013-01-02 12:12:00,6.0,-1.0,-100.00,West,265,7.0,12.0,73,0.00,,,0.01,,2013-01-02 19:12:00,
2013-01-02 12:23:00,6.0,-1.0,-100.00,West,265,7.0,12.0,73,0.00,,,0.01,,2013-01-02 19:23:00,
2013-01-02 12:53:00,8.0,1.0,-100.00,West,269,8.0,12.0,72,0.00,,,0.00,,2013-01-02 19:53:00,
2013-01-02 13:03:00,8.0,1.0,-100.00,West,269,8.0,12.0,72,0.00,,,0.00,,2013-01-02 20:03:00,
2013-01-02 13:12:00,8.0,1.0,-100.00,West,269,8.0,12.0,72,0.00,,,0.00,,2013-01-02 20:12:00,
2013-01-02 13:22:00,8.0,1.0,-100.00,West,269,8.0,12.0,72,0.00,,,0.00,,2013-01-02 20:22:00,
2013-01-02 13:53:00,8.0,1.0,-100.00,West,262,10.0,15.0,71,0.00,,,0.00,,2013-01-02 20:53:00,
2013-01-02 14:03:00,8.0,1.0,-100.00,West,262,10.0,15.0,71,0.00,,,0.00,,2013-01-02 21:03:00,
2013-01-02 14:13:00,8.0,1.0,-100.00,West,262,10.0,15.0,71,0.00,,,0.00,,2013-01-02 21:13:00,
2013-01-02 14:22:00,8.0,1.0,-100.00,West,262,10.0,15.0,71,0.00,,,0.00,,2013-01-02 21:22:00,
2013-01-02 14:53:00,8.0,0.0,-100.00,WNW,282,9.0,15.0,68,0.00,,,0.00,,2013-01-02 21:53:00,
2013-01-02 15:03:00,8.0,0.0,-100.00,WNW,282,9.0,15.0,68,0.00,,,0.00,,2013-01-02 22:03:00,
2013-01-02 15:12:00,8.0,0.0,-100.00,WNW,282,9.0,15.0,68,0.00,,,0.00,,2013-01-02 22:12:00,
2013-01-02 15:22:00,8.0,0.0,-100.00,WNW,282,9.0,15.0,68,0.00,,,0.00,,2013-01-02 22:22:00,
2013-01-02 15:53:00,8.0,0.0,-100.00,WNW,300,11.0,16.0,69,0.00,,,0.00,,2013-01-02 22:53:00,
2013-01-02 16:03:00,8.0,0.0,-100.00,WNW,300,11.0,16.0,69,0.00,,,0.00,,2013-01-02 23:03:00,
2013-01-02 16:12:00,8.0,0.0,-100.00,WNW,300,11.0,16.0,69,0.00,,,0.00,,2013-01-02 23:12:00,
2013-01-02 16:23:00,8.0,0.0,-100.00,WNW,300,11.0,16.0,69,0.00,,,0.00,,2013-01-02 23:23:00,
2013-01-02 16:53:00,5.0,-1.0,-100.00,WNW,288,8.0,17.0,76,0.00,,,0.00,,2013-01-02 23:53:00,
2013-01-02 17:02:00,5.0,-1.0,-100.00,WNW,288,8.0,17.0,76,0.00,,,0.00,,2013-01-03 00:02:00,
2013-01-02 17:12:00,5.0,-1.0,-100.00,WNW,288,8.0,17.0,76,0.00,,,0.00,,2013-01-03 00:12:00,
2013-01-02 17:22:00,5.0,-1.0,-100.00,WNW,288,8.0,17.0,76,0.00,,,0.00,,2013-01-03 00:22:00,
2013-01-02 17:53:00,3.0,-1.0,-100.00,WNW,286,5.0,11.0,81,0.00,,,0.00,,2013-01-03 00:53:00,
2013-01-02 18:02:00,3.0,-1.0,-100.00,WNW,286,5.0,11.0,81,0.00,,,0.00,,2013-01-03 01:02:00,
2013-01-02 18:12:00,3.0,-1.0,-100.00,WNW,286,5.0,11.0,81,0.00,,,0.00,,2013-01-03 01:12:00,
2013-01-02 18:22:00,3.0,-1.0,-100.00,WNW,286,5.0,11.0,81,0.00,,,0.00,,2013-01-03 01:22:00,
2013-01-02 18:53:00,1.0,-4.0,-100.00,SSW,212,0.0,7.0,78,0.00,,,0.00,,2013-01-03 01:53:00,
2013-01-02 19:02:00,1.0,-4.0,-100.00,SSW,212,0.0,7.0,78,0.00,,,0.00,,2013-01-03 02:02:00,
2013-01-02 19:12:00,1.0,-4.0,-100.00,SSW,212,0.0,7.0,78,0.00,,,0.00,,2013-01-03 02:12:00,
2013-01-02 19:22:00,1.0,-4.0,-100.00,SSW,212,0.0,7.0,78,0.00,,,0.00,,2013-01-03 02:22:00,
2013-01-02 20:02:00,1.0,-4.0,-100.00,WSW,256,2.0,6.0,78,0.00,,,0.00,,2013-01-03 03:02:00,
2013-01-02 20:12:00,1.0,-4.0,-100.00,WSW,256,2.0,6.0,78,0.00,,,0.00,,2013-01-03 03:12:00,
2013-01-02 20:22:00,1.0,-4.0,-100.00,WSW,256,2.0,6.0,78,0.00,,,0.00,,2013-01-03 03:22:00,
2013-01-02 20:53:00,1.0,-4.0,-100.00,WSW,256,3.0,7.0,78,0.00,,,0.00,,2013-01-03 03:53:00,
2013-01-02 21:02:00,1.0,-4.0,-100.00,WSW,256,3.0,7.0,78,0.00,,,0.00,,2013-01-03 04:02:00,
2013-01-02 21:12:00,1.0,-4.0,-100.00,WSW,256,3.0,7.0,78,0.00,,,0.00,,2013-01-03 04:12:00,
2013-01-02 21:22:00,1.0,-4.0,-100.00,WSW,256,3.0,7.0,78,0.00,,,0.00,,2013-01-03 04:22:00,
2013-01-02 21:52:00,0.0,-5.0,-100.00,South,176,0.0,4.0,77,0.00,,,0.00,,2013-01-03 04:52:00,
2013-01-02 22:03:00,0.0,-5.0,-100.00,South,176,0.0,4.0,77,0.00,,,0.00,,2013-01-03 05:03:00,
2013-01-02 22:12:00,0.0,-5.0,-100.00,South,176,0.0,4.0,77,0.00,,,0.00,,2013-01-03 05:12:00,
2013-01-02 22:22:00,0.0,-5.0,-100.00,South,176,0.0,4.0,77,0.00,,,0.00,,2013-01-03 05:22:00,
2013-01-02 22:53:00,0.0,-6.0,-100.00,SSW,206,4.0,7.0,75,0.00,,,0.00,,2013-01-03 05:53:00,
2013-01-02 23:02:00,0.0,-6.0,-100.00,SSW,206,4.0,7.0,75,0.00,,,0.00,,2013-01-03 06:02:00,
2013-01-02 23:12:00,0.0,-6.0,-100.00,SSW,206,4.0,7.0,75,0.00,,,0.00,,2013-01-03 06:12:00,
2013-01-02 23:22:00,0.0,-6.0,-100.00,SSW,206,4.0,7.0,75,0.00,,,0.00,,2013-01-03 06:22:00,
2013-01-02 23:53:00,0.0,-7.0,-100.00,WSW,239,3.0,7.0,73,0.00,,,0.00,,2013-01-03 06:53:00,